Showing default

OPS 3151, 9803

Orbit data source: Space-Track

OPS 3151, 9803 is a payload satellite owned by SAMSO (US) in GEO that was launched on Sun, 06 Feb 1977 UTC via a TITAN IIIC launch vehicle from the Air Force Eastern Test Range (AFETR). Payload-class satellites include a variety of spacecraft equipped with specific instruments for various scientific and technological missions. These include communications satellites like Starlink; space stations such as the ISS; scientific satellites like the Hubble; Earth observation satellites from companies like Planet Labs, Umbra, and HawkEye 360; GPS; miniature CubeSats for education and research; and military/defense satellites.

Loading next visibility...
Identifier
9803, 1977-007A
Orbit
GEO
Country
Flag of USUS
Related business
Manufacturer
TRW
Mission
Defense Early Warn
Bus & Motor
DSP P2, MRE-4
Mass
1,040 kg wet, ~980 kg dry
Launch date (UTC)
1977-02-06 (49 years ago)
Launch vehicle
TITAN IIIC
Launch site
Air Force Eastern Test Range (AFETR)
Object type
Payload
Rocket body
Debris
Shape & HBR
Cyl + 4 Pan, Unknown HBR
Radar Cross Section
27.525 m²

Expand to show TLE details & history
Last TLE update: 12 hours ago

TLE from 12 hours ago
0 OPS 3151
1 09803U 77007A   25258.56091584 -.00000059  00000-0  00000-0 0  9996
2 09803   5.4331 286.6816 0078574  30.4612 119.4594  0.97527789 21978
Epoch: 2025-09-15T13:27Z
TLE epoch observation values (Epoch: 2025-09-15T13:27:43.128Z)
Latitude
2.6403°
Longitude
-119.18712°
Altitude
36,740.321 km
Speed
3.035 km/s
True Right ascension
05h 10m 01s
True Declination
2° 38' 16"
Sunlit
Object was in daylight at epoch
Visualization orbit readout
Latitude
Unknown
Longitude
Unknown
Altitude
Unknown
Speed
Unknown
Apparent Right ascension
Unknown
Apparent Declination
Unknown
Sunlit
N/A
Visualization observer readout
Local Sidereal Time
17:57:01
Azimuth
Unknown
Elevation
Unknown
Doppler factor
Unknown
Orbital elements
Apogee altitude
36,912.354 km
Perigee altitude
36,237.356 km
Semi-major axis
42,952.992 km
Eccentricity
0.00786
Inclination
5.4331°
RAAN
286.6816°
Arg. of periapsis
30.4612°
True anomaly
120.23958°
Mean anomaly
119.4594°
Eccentric anomaly
119.84987°
Mean motion
0.24381 °/min
Orbital period
1,476.55 mins
BSTAR
0
Loading maneuver chart data...
Computing Atmospheric mass density...
Loading historical data...
Loading historical data...
Loading historical data...
Loading historical data...
Loading historical data...
Loading historical data...
Loading historical data...
Other satellites on launch #7 in the year 1977 (1977-02-06 UTC)

Documentation

Showing up to 5 results
|